FW0270 Weather Reports


Display with metric or nautical units.
time (UTC)temp
F
wind
direction
speed
MPH
gust
MPH
rain 1hr
in
rain 24hr
in
rain mn
in
humidity
%
barometer
mb
20260509130053 55 248 0.0 4.0 0.00 0.00 0.00 60 1005.3
20260509124554 52 242 0.0 2.0 0.00 0.00 0.00 67 1005.2
20260509123045 50 240 0.0 1.0 0.00 0.00 0.00 70 1005.1
20260509121554 47 243 0.0 2.0 0.00 0.00 0.00 74 1005.0
20260509120043 43 231 0.0 2.0 0.00 0.00 0.00 83 1004.6
20260509114555 41 250 0.0 0.0 0.00 0.00 0.00 84 1004.6
20260509113040 40 250 0.0 0.0 0.00 0.00 0.00 87 1004.4
20260509111539 40 250 0.0 0.0 0.00 0.00 0.00 87 1004.1
20260509110037 40 250 0.0 0.0 0.00 0.00 0.00 88 1004.5
20260509104538 39 250 0.0 0.0 0.00 0.00 0.00 88 1004.5
20260509103036 39 250 0.0 0.0 0.00 0.00 0.00 87 1004.6
20260509101537 40 250 0.0 0.0 0.00 0.00 0.00 86 1004.7
20260509100033 40 250 0.0 0.0 0.00 0.00 0.00 85 1004.6
20260509094540 41 250 0.0 0.0 0.00 0.00 0.00 85 1004.5
20260509093028 42 250 0.0 0.0 0.00 0.00 0.00 84 1004.4
20260509091526 43 250 0.0 0.0 0.00 0.00 0.00 84 1004.5
20260509090049 43 250 0.0 0.0 0.00 0.00 0.00 84 1004.5
20260509084524 44 250 0.0 0.0 0.00 0.00 0.00 83 1004.5
20260509083038 45 250 0.0 0.0 0.00 0.00 0.00 82 1004.4
20260509081525 45 250 0.0 0.0 0.00 0.00 0.00 82 1004.2
20260509080014 46 250 0.0 0.0 0.00 0.00 0.00 80 1004.2
20260509074524 47 250 0.0 0.0 0.00 0.00 0.00 78 1004.1
20260509073008 49 250 0.0 0.0 0.00 0.00 0.00 78 1004.0
20260509071505 50 250 0.0 0.0 0.00 0.00 0.00 75 1004.0
20260509070101 51 250 0.0 0.0 0.00 0.00 0.00 73 1004.2
20260509064556 52 250 0.0 0.0 0.00 0.00 0.00 72 1004.3
20260509063112 53 250 0.0 1.0 0.00 0.00 0.00 70 1004.4
20260509061556 54 250 0.0 0.0 0.00 0.00 0.00 66 1004.3
20260509060052 55 250 0.0 0.0 0.00 0.00 0.00 63 1004.2
20260509054543 57 250 0.0 1.0 0.00 0.00 0.00 60 1004.6
20260509053045 58 250 0.0 2.0 0.00 0.00 0.00 59 1004.5
20260509051542 59 225 0.0 2.0 0.00 0.00 0.00 55 1004.6
20260509050048 60 226 0.0 1.0 0.00 0.00 0.00 51 1004.3
20260509044535 62 224 0.0 5.0 0.00 0.00 0.00 48 1004.2
20260509043041 63 221 0.0 3.0 0.00 0.00 0.00 45 1004.2
20260509041530 65 194 0.0 6.0 0.00 0.00 0.00 42 1004.3
20260509040030 66 286 1.0 4.0 0.00 0.00 0.00 40 1004.1
20260509034530 67 240 0.0 6.0 0.00 0.00 0.00 40 1004.0
20260509033036 67 238 3.0 10.0 0.00 0.00 0.00 39 1004.3
20260509031531 67 251 4.0 13.0 0.00 0.00 0.00 40 1004.2
20260509030028 65 215 3.0 12.0 0.00 0.00 0.00 40 1004.2
20260509024529 65 226 0.0 4.0 0.00 0.00 0.00 40 1004.3
20260509023027 66 227 0.0 3.0 0.00 0.00 0.00 36 1004.1
20260509021525 67 237 0.0 5.0 0.00 0.00 0.00 35 1004.0
20260509020024 66 195 2.0 7.0 0.00 0.00 0.00 35 1003.8
20260509014526 66 233 0.0 3.0 0.00 0.00 0.00 35 1003.7
20260509013022 67 221 0.0 2.0 0.00 0.00 0.00 35 1003.6
20260509011522 68 221 1.0 7.0 0.00 0.00 0.00 32 1003.6
20260509010021 69 219 0.0 1.0 0.00 0.00 0.00 31 1003.6
20260509004520 70 220 1.0 3.0 0.00 0.00 0.00 30 1003.6
20260509003019 70 253 0.0 5.0 0.00 0.00 0.00 29 1003.8
20260509001519 71 243 0.0 4.0 0.00 0.00 0.00 28 1003.8
20260509000034 71 259 1.0 7.0 0.00 0.00 0.00 28 1004.0
20260508234516 72 227 1.0 6.0 0.00 0.00 0.00 28 1004.2
20260508233014 73 244 0.0 6.0 0.00 0.00 0.00 27 1004.3
20260508231513 74 286 1.0 7.0 0.00 0.00 0.00 27 1004.5
20260508230011 73 350 2.0 11.0 0.00 0.00 0.00 27 1004.5
20260508224529 73 198 1.0 5.0 0.00 0.00 0.00 27 1004.6
20260508223007 74 295 3.0 9.0 0.00 0.00 0.00 25 1004.8
20260508221507 75 197 0.0 4.0 0.00 0.00 0.00 27 1004.6
20260508220006 74 295 2.0 10.0 0.00 0.00 0.00 26 1004.8
20260508214504 75 211 2.0 11.0 0.00 0.00 0.00 26 1004.9
20260508213006 75 208 1.0 5.0 0.00 0.00 0.00 26 1005.2
20260508211601 75 306 4.0 10.0 0.00 0.00 0.00 28 1005.4
20260508210058 75 322 1.0 6.0 0.00 0.00 0.00 28 1005.5
20260508204557 74 296 4.0 11.0 0.00 0.00 0.00 26 1005.7
20260508203101 74 315 2.0 8.0 0.00 0.00 0.00 29 1006.0
20260508201554 74 300 3.0 9.0 0.00 0.00 0.00 29 1006.1
20260508200106 73 265 4.0 10.0 0.00 0.00 0.00 27 1006.5
20260508194548 73 302 3.0 8.0 0.00 0.00 0.00 27 1006.9
20260508193057 73 276 3.0 9.0 0.00 0.00 0.00 27 1007.1
20260508191545 72 196 4.0 11.0 0.00 0.00 0.00 30 1007.2
20260508190043 72 226 2.0 6.0 0.00 0.00 0.00 32 1007.5
20260508184542 71 288 2.0 8.0 0.00 0.00 0.00 31 1007.7
20260508183051 71 321 2.0 10.0 0.00 0.00 0.00 29 1007.9
20260508181547 70 29 5.0 11.0 0.00 0.00 0.00 29 1007.9
20260508180035 70 270 1.0 5.0 0.00 0.00 0.00 30 1008.2
20260508174531 70 285 2.0 8.0 0.00 0.00 0.00 30 1008.3
20260508173029 70 15 2.0 7.0 0.00 0.00 0.00 30 1008.8
20260508171534 69 287 1.0 11.0 0.00 0.00 0.00 31 1009.1
20260508170027 68 345 1.0 8.0 0.00 0.00 0.00 32 1009.3
20260508164525 68 312 2.0 7.0 0.00 0.00 0.00 32 1009.5
20260508163023 68 283 1.0 4.0 0.00 0.00 0.00 35 1009.7
20260508161527 67 295 0.0 6.0 0.00 0.00 0.00 39 1009.9
20260508160012 66 20 0.0 5.0 0.00 0.00 0.00 41 1009.9
20260508154510 65 140 0.0 3.0 0.00 0.00 0.00 47 1010.0
20260508153006 64 129 0.0 5.0 0.00 0.00 0.00 48 1010.2
20260508151504 63 130 0.0 4.0 0.00 0.00 0.00 49 1010.5
20260508150125 61 230 1.0 2.0 0.00 0.00 0.00 50 1010.5
20260508144604 60 133 0.0 3.0 0.00 0.00 0.00 53 1010.7
20260508143054 59 238 0.0 3.0 0.00 0.00 0.00 54 1010.7
20260508141600 58 143 0.0 4.0 0.00 0.00 0.00 54 1010.9
20260508140057 57 122 0.0 4.0 0.00 0.00 0.00 52 1010.9
20260508134546 56 125 0.0 2.0 0.00 0.00 0.00 54 1011.2
20260508133043 53 149 0.0 3.0 0.00 0.00 0.00 53 1011.1